Weather History for Camp Pendleton, CA

Change the Weather History Date:

Tuesday, March 18, 2014

  Actual Average Record
Temperature  
Mean Temperature 62 °F -  
Max Temperature 71 °F 66 °F 82 °F (1997)
Min Temperature 52 °F 44 °F 32 °F (2008)
Degree Days  
Heating Degree Days 4    
Growing Degree Days 12 (Base 50)    
Moisture  
Dew Point 50 °F    
Average Humidity 66    
Maximum Humidity 86    
Minimum Humidity 44    
Precipitation  
Precipitation 0.00 in - - ()
Sea Level Pressure  
Sea Level Pressure 29.85 in    
Wind  
Wind Speed 5 mph (SSE)    
Max Wind Speed 12 mph    
Max Gust Speed 20 mph    
Visibility 7 miles    
Events      
Averages and records for this station are not official NWS values.
T = Trace of Precipitation, MM = Missing Value Source: NWS Daily Summary

Daily Weather History Graph

Daily Weather History Graph

Search for Another Location

Airport:

Trip Planner

Search our weather history database for the weather conditions in past years. The results will help you decide how hot, cold, wet, or windy it might be!

Date:

Astronomy

Mar. 18, 2014 Rise Set
Actual Time 6:55 AM PDT 6:59 PM PDT
Civil Twilight 6:30 AM PDT 7:24 PM PDT
Nautical Twilight 6:02 AM PDT 7:53 PM PDT
Astronomical Twilight 5:33 AM PDT 8:22 PM PDT
Moon 9:13 PM PDT (3/18) 7:54 AM PDT (3/18)
Length of Visible Light 12h 53m
Length of Day
12h 03m
Waning Gibbous, 96% of the Moon is Illuminated
Mar 18
Waning Gibbous
Mar 23
Last Quarter
Mar 30
New
Apr 7
First Quarter
Apr 15
Full

Hourly Weather History & Observations

Time (PDT) Temp. Dew Point Humidity Pressure Visibility Wind Dir Wind Speed Gust Speed Precip Events Conditions
12:54 AM 61.0 °F 51.1 °F 70% 29.83 in 6.0 mi SSE 5.8 mph - N/A   Mostly Cloudy
1:54 AM 61.0 °F 50.0 °F 67% 29.83 in 6.0 mi East 3.5 mph - N/A   Haze
2:54 AM 61.0 °F 50.0 °F 67% 29.82 in 6.0 mi ESE 4.6 mph - N/A   Haze
3:54 AM 61.0 °F 50.0 °F 67% 29.81 in 6.0 mi ESE 3.5 mph - N/A   Haze
4:54 AM 60.1 °F 48.9 °F 67% 29.82 in 6.0 mi ESE 3.5 mph - N/A   Haze
5:54 AM 60.1 °F 48.9 °F 67% 29.81 in 6.0 mi SE 5.8 mph - N/A   Haze
6:54 AM 59.0 °F 48.9 °F 69% 29.83 in 6.0 mi South 4.6 mph - N/A   Haze
7:54 AM 60.1 °F 48.9 °F 67% 29.85 in 7.0 mi ESE 3.5 mph - N/A   Mostly Cloudy
8:54 AM 62.1 °F 48.0 °F 60% 29.86 in 7.0 mi SE 4.6 mph - N/A   Mostly Cloudy
9:54 AM 64.0 °F 48.9 °F 58% 29.87 in 7.0 mi East 4.6 mph - N/A   Mostly Cloudy
10:54 AM 66.9 °F 48.0 °F 51% 29.86 in 7.0 mi Calm Calm - N/A   Mostly Cloudy
11:54 AM 70.0 °F 46.9 °F 44% 29.85 in 7.0 mi Calm Calm - N/A   Scattered Clouds
12:54 PM 70.0 °F 50.0 °F 49% 29.84 in 7.0 mi SW 8.1 mph - N/A   Scattered Clouds
1:54 PM 69.1 °F 50.0 °F 51% 29.83 in 7.0 mi WSW 8.1 mph - N/A   Scattered Clouds
2:54 PM 69.1 °F 51.1 °F 53% 29.81 in 7.0 mi WSW 10.4 mph - N/A   Scattered Clouds
3:54 PM 66.0 °F 51.1 °F 59% 29.83 in 7.0 mi SW 10.4 mph 19.6 mph N/A   Scattered Clouds
4:54 PM 64.9 °F 52.0 °F 63% 29.84 in 7.0 mi SSW 11.5 mph - N/A   Scattered Clouds
5:54 PM 63.0 °F 52.0 °F 67% 29.86 in 7.0 mi SSW 8.1 mph - N/A   Scattered Clouds
6:54 PM 61.0 °F 52.0 °F 72% 29.87 in 7.0 mi SW 4.6 mph - N/A   Scattered Clouds
7:54 PM 57.9 °F 51.1 °F 78% 29.89 in 7.0 mi Calm Calm - N/A   Scattered Clouds
8:54 PM 55.9 °F 50.0 °F 80% 29.91 in 7.0 mi NNE 3.5 mph - N/A   Scattered Clouds
9:54 PM 55.0 °F 48.9 °F 80% 29.92 in 7.0 mi Calm Calm - N/A   Scattered Clouds
10:54 PM 53.1 °F 48.9 °F 86% 29.93 in 7.0 mi NNE 4.6 mph - N/A   Partly Cloudy
11:54 PM 52.0 °F 48.0 °F 86% 29.94 in 7.0 mi Calm Calm - N/A   Partly Cloudy